Weather History for CWSA - December, 2013

Change the Weather History Date:

Sunday, December 22, 2013

  Actual Average Record
Temperature  
Mean Temperature 42 °F -  
Max Temperature 46 °F 39 °F 53 °F (1998)
Min Temperature 37 °F 30 °F 24 °F (1997)
Degree Days  
Heating Degree Days 24    
Moisture  
Dew Point 39 °F    
Average Humidity 95    
Maximum Humidity 100    
Minimum Humidity 91    
Precipitation  
Precipitation 0.12 in - - ()
Sea Level Pressure  
Sea Level Pressure 30.02 in    
Wind  
Wind Speed 14 mph ()    
Max Wind Speed 24 mph    
Max Gust Speed 32 mph    
Visibility 2.4 miles    
Events Rain    
Averages and records for this station are not official NWS values.
T = Trace of Precipitation, MM = Missing Value Source: Averaged Metar Reports

Daily Weather History Graph

Daily Weather History Graph

Search for Another Location

Airport or City:

Trip Planner

Search our weather history database for the weather conditions in past years. The results will help you decide how hot, cold, wet, or windy it might be!

Date:

Astronomy

Dec. 22, 2013 Rise Set
Actual Time 7:31 AM AST 4:25 PM AST
Civil Twilight 6:58 AM AST 4:58 PM AST
Nautical Twilight 6:22 AM AST 5:35 PM AST
Astronomical Twilight 5:47 AM AST 6:10 PM AST
Moon 9:43 PM AST (12/22) 10:16 AM AST (12/22)
Length of Visible Light 9h 59m
Length of Day
8h 53m
Waning Gibbous, 77% of the Moon is Illuminated
Dec 22
Waning Gibbous
Dec 25
Last Quarter
Jan 1
New
Jan 7
First Quarter
Jan 16
Full

Hourly Weather History & Observations

Time (AST) Temp. Windchill Dew Point Humidity Pressure Visibility Wind Dir Wind Speed Gust Speed Precip Events Conditions
12:00 AM 46.4 °F 39.2 °F 44.6 °F 93% 29.98 in 1.8 mi WSW 18.4 mph - N/A   Partly Cloudy
12:12 AM 46.4 °F 39.2 °F 44.6 °F 93% 29.98 in 1.8 mi WSW 18.4 mph - N/A   Mostly Cloudy
12:29 AM 46.4 °F 38.7 °F 46.4 °F 100% 29.98 in 1.8 mi WSW 20.7 mph - N/A   Mostly Cloudy
12:55 AM 48.2 °F - 46.4 °F 93% 29.97 in 1.8 mi WSW 21.9 mph - N/A   Scattered Clouds
12:56 AM 48.2 °F - 46.4 °F 93% 29.97 in 1.8 mi WSW 23.0 mph - N/A   Overcast
12:58 AM 48.2 °F - 46.4 °F 93% 29.97 in 1.8 mi WSW 21.9 mph - N/A   Overcast
1:00 AM 48.2 °F - 46.4 °F 93% 29.97 in 2.0 mi WSW 21.9 mph - N/A   Overcast
1:27 AM 46.4 °F 39.5 °F 44.6 °F 93% 29.97 in 1.5 mi WSW 17.3 mph - N/A   Overcast
1:34 AM 46.4 °F 40.1 °F 44.6 °F 93% 29.97 in 1.2 mi WSW 15.0 mph - N/A   Mostly Cloudy
2:00 AM 46 °F - 45 °F 96% 29.99 in 1 mi WSW 15.0 mph - -  
2:00 AM 46.4 °F 40.4 °F 44.6 °F 93% 29.99 in 1.2 mi WSW 13.8 mph - N/A   Mostly Cloudy
2:12 AM 46.4 °F 40.7 °F 44.6 °F 93% 29.98 in 1.2 mi WSW 12.7 mph - N/A   Overcast
2:37 AM 46.4 °F 40.4 °F 44.6 °F 93% 29.98 in 1.0 mi WSW 13.8 mph - N/A   Overcast
2:42 AM 46.4 °F 40.7 °F 44.6 °F 93% 29.98 in 1.0 mi WSW 12.7 mph - N/A   Overcast
2:43 AM 46.4 °F 40.7 °F 44.6 °F 93% 29.98 in 1.0 mi WSW 12.7 mph - N/A   Overcast
2:51 AM 44.6 °F 39.2 °F 44.6 °F 100% 29.98 in 0.8 mi WSW 10.4 mph - N/A   Overcast
3:00 AM 44.6 °F 39.2 °F 44.6 °F 100% 29.98 in 0.8 mi WSW 10.4 mph - N/A   Overcast
3:07 AM 44.6 °F 38.8 °F 44.6 °F 100% 29.98 in 0.6 mi WSW 11.5 mph - N/A   Overcast
3:18 AM 44.6 °F 39.2 °F 44.6 °F 100% 29.99 in 0.4 mi WSW 10.4 mph - N/A   Overcast
3:30 AM 44.6 °F 40.2 °F 44.6 °F 100% 29.99 in 0.1 mi West 8.1 mph - N/A   Overcast
4:00 AM 44.6 °F 39.7 °F 44.6 °F 100% 29.99 in 0.1 mi WSW 9.2 mph - N/A Rain Light Rain
4:02 AM 44.6 °F 39.7 °F 44.6 °F 100% 29.98 in 0.1 mi WSW 9.2 mph - N/A   Overcast
4:05 AM 44.6 °F 39.2 °F 44.6 °F 100% 29.98 in 0.1 mi WSW 10.4 mph - N/A Rain Light Rain
5:00 AM 45 °F - 45 °F 100% 30.00 in 0 mi West 10.4 mph - - Rain Light Rain
5:00 AM 44.6 °F 39.2 °F 44.6 °F 100% 30.00 in 0.1 mi West 10.4 mph - N/A Rain Light Rain
5:20 AM 44.6 °F 40.2 °F 44.6 °F 100% 29.99 in 0.1 mi West 8.1 mph - N/A   Overcast
5:32 AM 44.6 °F 40.2 °F 42.8 °F 93% 29.99 in 0.1 mi West 8.1 mph - N/A Rain Light Rain
5:50 AM 44.6 °F 40.2 °F 42.8 °F 93% 30.00 in 0.2 mi West 8.1 mph - N/A Rain Light Rain
5:53 AM 44.6 °F 40.7 °F 42.8 °F 93% 29.99 in 0.2 mi West 6.9 mph - N/A   Light Drizzle
6:00 AM 44.6 °F 39.7 °F 42.8 °F 93% 30.01 in 0.2 mi West 9.2 mph - N/A   Drizzle
6:10 AM 44.6 °F 40.2 °F 42.8 °F 93% 30.00 in 0.4 mi WSW 8.1 mph - N/A   Overcast
7:00 AM 44.6 °F 40.7 °F 42.8 °F 93% 30.02 in 0.4 mi West 6.9 mph - N/A   Overcast
7:38 AM 44.6 °F 40.7 °F 44.6 °F 100% 30.03 in 0.8 mi WNW 6.9 mph - N/A   Overcast
7:46 AM 44.6 °F 40.7 °F 42.8 °F 93% 30.02 in 0.6 mi WNW 6.9 mph - N/A   Overcast
7:49 AM 41.0 °F 33.9 °F 41.0 °F 100% 30.03 in 0.6 mi North 12.7 mph - N/A   Overcast
7:52 AM 41.0 °F 34.3 °F 39.2 °F 93% 30.03 in 1.0 mi North 11.5 mph - N/A   Overcast
7:56 AM 39.2 °F 32.0 °F 39.2 °F 100% 30.03 in 3.0 mi NNE 11.5 mph - N/A   Overcast
8:00 AM 40 °F - 39 °F 93% 30.03 in 7 mi NNE 11.5 mph - - Rain Light Rain
8:00 AM 39.2 °F 32.5 °F 39.2 °F 100% 30.03 in 7.0 mi NNE 10.4 mph - N/A   Overcast
8:13 AM 39.2 °F 33.6 °F 39.2 °F 100% 30.03 in 7.0 mi NE 8.1 mph - N/A   Overcast
8:48 AM 39.2 °F 33.0 °F 39.2 °F 100% 30.04 in 9.0 mi NNE 9.2 mph - N/A   Overcast
9:00 AM 39.2 °F 32.5 °F 39.2 °F 100% 30.04 in 9.0 mi NNE 10.4 mph - N/A   Overcast
9:24 AM 39.2 °F 33.6 °F 37.4 °F 93% 30.04 in 4.0 mi NE 8.1 mph - N/A   Overcast
9:43 AM 39.2 °F 33.6 °F 37.4 °F 93% 30.05 in 4.0 mi NE 8.1 mph - N/A   Overcast
10:00 AM 39.2 °F 33.6 °F 37.4 °F 93% 30.05 in 4.0 mi NE 8.1 mph - N/A   Overcast
10:02 AM 39.2 °F 33.6 °F 37.4 °F 93% 30.05 in 3.0 mi NE 8.1 mph - N/A Rain Light Rain
10:06 AM 39.2 °F 32.5 °F 37.4 °F 93% 30.05 in 2.5 mi NE 10.4 mph - N/A Rain Light Rain
10:08 AM 39.2 °F 32.0 °F 39.2 °F 100% 30.05 in 2.5 mi NE 11.5 mph - N/A Rain Light Rain
10:12 AM 39.2 °F 33.6 °F 37.4 °F 93% 30.05 in 2.5 mi NNE 8.1 mph - N/A   Light Drizzle
10:14 AM 39.2 °F 33.0 °F 37.4 °F 93% 30.05 in 2.5 mi NNE 9.2 mph - N/A   Light Drizzle
10:19 AM 39.2 °F 33.0 °F 37.4 °F 93% 30.06 in 2.5 mi NNE 9.2 mph - N/A   Light Drizzle
10:20 AM 39.2 °F 33.0 °F 37.4 °F 93% 30.06 in 2.5 mi NNE 9.2 mph - N/A   Overcast
10:21 AM 39.2 °F 33.0 °F 37.4 °F 93% 30.06 in 7.0 mi NNE 9.2 mph - N/A   Overcast
10:27 AM 39.2 °F 33.0 °F 37.4 °F 93% 30.06 in 8.0 mi NE 9.2 mph - N/A Rain Light Rain
10:39 AM 39.2 °F 33.6 °F 37.4 °F 93% 30.05 in 3.0 mi NE 8.1 mph - N/A Rain Light Rain
10:55 AM 39.2 °F 33.0 °F 39.2 °F 100% 30.04 in 9.0 mi NE 9.2 mph - N/A Rain Light Rain
11:00 AM 39 °F - 38 °F 96% 30.04 in 9 mi NE 9.2 mph - - Rain Light Rain
11:00 AM 39.2 °F 33.0 °F 39.2 °F 100% 30.04 in 9.0 mi NE 9.2 mph - N/A Rain Light Rain
11:01 AM 39.2 °F 32.5 °F 37.4 °F 93% 30.04 in 9.0 mi NE 10.4 mph - N/A Rain Light Rain
11:04 AM 39.2 °F 32.5 °F 39.2 °F 100% 30.04 in 6.0 mi NE 10.4 mph - N/A Rain Light Rain
11:10 AM 39.2 °F 33.0 °F 37.4 °F 93% 30.04 in 2.5 mi NE 9.2 mph - N/A Rain Light Rain
11:32 AM 39.2 °F 35.0 °F 39.2 °F 100% 30.02 in 2.5 mi ENE 5.8 mph - N/A Rain Light Rain
11:40 AM 39.2 °F 32.0 °F 37.4 °F 93% 30.01 in 9.0 mi ENE 11.5 mph - N/A Rain Light Rain
11:46 AM 39.2 °F 33.0 °F 37.4 °F 93% 30.00 in 8.0 mi East 9.2 mph - N/A Rain Light Rain
11:53 AM 39.2 °F 32.5 °F 37.4 °F 93% 30.00 in 6.0 mi East 10.4 mph - N/A Rain Light Rain
12:00 PM 39.2 °F 32.5 °F 37.4 °F 93% 29.99 in 8.0 mi East 10.4 mph - N/A Rain Light Rain
12:06 PM 39.2 °F 33.0 °F 37.4 °F 93% 29.99 in 7.0 mi East 9.2 mph - N/A   Overcast
12:08 PM 39.2 °F 32.5 °F 37.4 °F 93% 29.99 in 6.0 mi East 10.4 mph - N/A   Overcast
12:22 PM 39.2 °F 34.2 °F 39.2 °F 100% 29.98 in 3.0 mi ESE 6.9 mph - N/A   Overcast
12:23 PM 39.2 °F 33.6 °F 39.2 °F 100% 29.98 in 2.2 mi ESE 8.1 mph - N/A   Overcast
12:27 PM 39.2 °F 33.0 °F 39.2 °F 100% 29.98 in 1.2 mi East 9.2 mph - N/A   Overcast
12:37 PM 39.2 °F 33.0 °F 39.2 °F 100% 29.97 in 1.2 mi East 9.2 mph - N/A   Overcast
12:41 PM 39.2 °F 34.2 °F 39.2 °F 100% 29.97 in 1.2 mi East 6.9 mph - N/A   Overcast
12:44 PM 39.2 °F 33.0 °F 39.2 °F 100% 29.98 in 2.5 mi ESE 9.2 mph - N/A   Overcast
12:50 PM 39.2 °F 33.0 °F 39.2 °F 100% 29.97 in 1.8 mi ESE 9.2 mph - N/A   Overcast
12:55 PM 39.2 °F 32.0 °F 39.2 °F 100% 29.97 in 1.2 mi ESE 11.5 mph - N/A   Overcast
1:00 PM 39.2 °F 32.0 °F 39.2 °F 100% 29.97 in 1.0 mi ESE 11.5 mph - N/A   Overcast
1:02 PM 39.2 °F 32.0 °F 39.2 °F 100% 29.97 in 0.8 mi ESE 11.5 mph - N/A   Overcast
1:14 PM 39.2 °F 35.0 °F 39.2 °F 100% 29.97 in 0.8 mi East 5.8 mph - N/A   Light Drizzle
1:25 PM 39.2 °F 34.2 °F 39.2 °F 100% 29.98 in 0.8 mi NE 6.9 mph - N/A   Drizzle
1:28 PM 39.2 °F 35.0 °F 39.2 °F 100% 29.98 in 0.8 mi ENE 5.8 mph - N/A   Drizzle
1:29 PM 41.0 °F 36.4 °F 39.2 °F 93% 29.97 in 0.8 mi ENE 6.9 mph - N/A Rain Light Rain
1:31 PM 41.0 °F 36.4 °F 39.2 °F 93% 29.97 in 1.0 mi ENE 6.9 mph - N/A Rain Light Rain
1:34 PM 41.0 °F 36.4 °F 39.2 °F 93% 29.97 in 0.8 mi ENE 6.9 mph - N/A Rain Light Rain
1:47 PM 39.2 °F 35.0 °F 39.2 °F 100% 29.98 in 1.5 mi NE 5.8 mph - N/A   Drizzle
1:57 PM 41.0 °F 37.1 °F 39.2 °F 93% 29.98 in 2.5 mi ENE 5.8 mph - N/A   Overcast
2:00 PM 40 °F - 39 °F 95% 29.98 in 3 mi ENE 6.9 mph - - Rain Light Drizzle
2:00 PM 39.2 °F 33.0 °F 39.2 °F 100% 29.98 in 3.0 mi ENE 9.2 mph - N/A   Overcast
2:04 PM 39.2 °F 33.6 °F 39.2 °F 100% 29.97 in 2.2 mi East 8.1 mph - N/A   Overcast
2:05 PM 39.2 °F 33.6 °F 39.2 °F 100% 29.97 in 2.0 mi East 8.1 mph - N/A   Light Drizzle
2:42 PM 41.0 °F 35.2 °F 39.2 °F 93% 29.97 in 2.0 mi ENE 9.2 mph - N/A   Light Drizzle
2:47 PM 41.0 °F 35.8 °F 39.2 °F 93% 29.96 in 1.8 mi East 8.1 mph - N/A   Light Drizzle
2:49 PM 41.0 °F 38.0 °F 39.2 °F 93% 29.96 in 1.2 mi East 4.6 mph - N/A   Overcast
2:55 PM 41.0 °F 36.4 °F 39.2 °F 93% 29.96 in 1.0 mi East 6.9 mph - N/A Rain Light Rain
3:00 PM 41.0 °F 36.4 °F 39.2 °F 93% 29.96 in 1.2 mi East 6.9 mph - N/A Rain Light Rain
3:35 PM 39.2 °F 33.0 °F 39.2 °F 100% 29.96 in 2.0 mi ENE 9.2 mph - N/A Rain Light Rain
3:48 PM 39.2 °F 32.5 °F 39.2 °F 100% 29.96 in 2.2 mi ENE 10.4 mph - N/A   Overcast
3:54 PM 39.2 °F 31.2 °F 39.2 °F 100% 29.96 in 2.5 mi ENE 13.8 mph - N/A   Overcast
3:56 PM 39.2 °F 31.6 °F 39.2 °F 100% 29.96 in 2.5 mi East 12.7 mph - N/A   Overcast
4:00 PM 39.2 °F 33.0 °F 39.2 °F 100% 29.96 in 3.0 mi ENE 9.2 mph - N/A   Overcast
4:01 PM 39.2 °F 33.0 °F 39.2 °F 100% 29.96 in 3.0 mi ENE 9.2 mph - N/A Rain Light Rain
4:12 PM 41.0 °F 36.4 °F 39.2 °F 93% 29.95 in 2.2 mi ENE 6.9 mph - N/A Rain Light Rain
4:26 PM 41.0 °F 34.3 °F 39.2 °F 93% 29.97 in 1.2 mi NE 11.5 mph - N/A Rain Light Rain
4:54 PM 39.2 °F 29.8 °F 37.4 °F 93% 29.98 in 1.2 mi NE 18.4 mph 24.2 mph N/A Rain Light Rain
4:57 PM 39.2 °F 29.8 °F 37.4 °F 93% 29.98 in 1.2 mi NE 18.4 mph 24.2 mph N/A Rain Light Rain
4:58 PM 39.2 °F 29.6 °F 37.4 °F 93% 29.98 in 1.2 mi NE 19.6 mph - N/A Rain Light Rain
5:00 PM 39 °F - 37 °F 91% 29.98 in 2 mi NE 19.6 mph - - Rain Light Rain
5:00 PM 39.2 °F 29.3 °F 37.4 °F 93% 29.98 in 1.8 mi NE 20.7 mph - N/A Rain Light Rain
5:08 PM 39.2 °F 29.6 °F 37.4 °F 93% 29.98 in 2.5 mi NE 19.6 mph - N/A Rain Light Rain
5:09 PM 39.2 °F 28.7 °F 37.4 °F 93% 29.98 in 2.5 mi NE 23.0 mph - N/A Rain Light Rain
5:17 PM 37.4 °F 26.1 °F 37.4 °F 100% 30.01 in 2.2 mi NE 24.2 mph 32.2 mph N/A   Light Drizzle
5:24 PM 37.4 °F 27.2 °F 35.6 °F 93% 30.00 in 2.0 mi NE 19.6 mph 32.2 mph N/A   Light Drizzle
5:34 PM 37.4 °F 26.9 °F 35.6 °F 93% 30.01 in 2.5 mi NE 20.7 mph - N/A   Light Drizzle
5:37 PM 37.4 °F 26.4 °F 35.6 °F 93% 30.02 in 2.5 mi NE 23.0 mph - N/A Rain Light Rain
5:44 PM 37.4 °F 26.6 °F 35.6 °F 93% 30.02 in 3.0 mi NE 21.9 mph 29.9 mph N/A Rain Light Rain
5:56 PM 37.4 °F 27.8 °F 35.6 °F 93% 30.03 in 3.0 mi NE 17.3 mph 27.6 mph N/A Rain Light Rain
5:57 PM 37.4 °F 27.2 °F 35.6 °F 93% 30.03 in 2.2 mi NE 19.6 mph 25.3 mph N/A Rain Light Rain
5:59 PM 37.4 °F 26.9 °F 35.6 °F 93% 30.02 in 2.0 mi NE 20.7 mph - N/A   Overcast
6:00 PM 37.4 °F 26.6 °F 35.6 °F 93% 30.03 in 2.0 mi NE 21.9 mph - N/A   Mostly Cloudy
6:06 PM 37.4 °F 26.9 °F 35.6 °F 93% 30.02 in 1.8 mi NE 20.7 mph 27.6 mph N/A   Light Drizzle
6:18 PM 37.4 °F 27.5 °F 35.6 °F 93% 30.03 in 1.8 mi NE 18.4 mph 25.3 mph N/A   Light Drizzle
6:24 PM 37.4 °F 27.5 °F 35.6 °F 93% 30.04 in 1.8 mi NE 18.4 mph - N/A   Mostly Cloudy
6:36 PM 37.4 °F 27.5 °F 35.6 °F 93% 30.05 in 1.8 mi NE 18.4 mph - N/A   Mostly Cloudy
6:38 PM 37.4 °F 27.8 °F 35.6 °F 93% 30.05 in 1.2 mi NE 17.3 mph 23.0 mph N/A   Light Drizzle
6:46 PM 37.4 °F 27.5 °F 35.6 °F 93% 30.05 in 1.0 mi NE 18.4 mph - N/A   Drizzle
6:47 PM 37.4 °F 27.8 °F 35.6 °F 93% 30.05 in 1.0 mi ENE 17.3 mph 23.0 mph N/A   Drizzle
6:56 PM 37.4 °F 26.4 °F 35.6 °F 93% 30.05 in 1.2 mi ENE 23.0 mph - N/A   Drizzle
7:00 PM 37.4 °F 27.2 °F 35.6 °F 93% 30.06 in 1.5 mi ENE 19.6 mph 25.3 mph N/A   Drizzle
7:01 PM 37.4 °F 27.2 °F 35.6 °F 93% 30.05 in 1.5 mi ENE 19.6 mph 25.3 mph N/A   Drizzle
7:07 PM 37.4 °F 26.6 °F 35.6 °F 93% 30.05 in 1.6 mi ENE 21.9 mph - N/A   Light Drizzle
7:10 PM 37.4 °F 26.9 °F 35.6 °F 93% 30.05 in 1.6 mi ENE 20.7 mph - N/A   Light Drizzle
7:14 PM 37.4 °F 26.6 °F 35.6 °F 93% 30.04 in 1.2 mi ENE 21.9 mph - N/A   Light Drizzle
7:15 PM 37.4 °F 26.1 °F 35.6 °F 93% 30.04 in 1.2 mi ENE 24.2 mph - N/A Rain Light Rain
7:20 PM 37.4 °F 26.6 °F 35.6 °F 93% 30.04 in 1.2 mi ENE 21.9 mph - N/A Rain Light Rain
7:21 PM 37.4 °F 27.2 °F 35.6 °F 93% 30.04 in 1.2 mi ENE 19.6 mph 25.3 mph N/A Rain Light Rain
7:22 PM 37.4 °F 27.2 °F 35.6 °F 93% 30.04 in 1.2 mi ENE 19.6 mph 25.3 mph N/A Rain Light Rain
7:27 PM 37.4 °F 26.6 °F 35.6 °F 93% 30.04 in 1.2 mi ENE 21.9 mph - N/A Rain Light Rain
7:29 PM 37.4 °F 27.2 °F 35.6 °F 93% 30.04 in 2.0 mi ENE 19.6 mph - N/A Rain Light Rain
7:39 PM 37.4 °F 26.4 °F 35.6 °F 93% 30.04 in 2.5 mi ENE 23.0 mph 28.8 mph N/A Rain Light Rain
7:53 PM 37.4 °F 26.9 °F 35.6 °F 93% 30.04 in 2.2 mi ENE 20.7 mph 28.8 mph N/A Rain Light Rain
8:00 PM 37 °F - 35 °F 91% 30.05 in 2 mi ENE 19.6 mph - - Rain Light Rain
8:00 PM 37.4 °F 27.8 °F 35.6 °F 93% 30.05 in 2.5 mi ENE 17.3 mph 27.6 mph N/A Rain Light Rain
8:01 PM 37.4 °F 27.5 °F 35.6 °F 93% 30.04 in 2.5 mi ENE 18.4 mph 27.6 mph N/A   Overcast
8:10 PM 37.4 °F 27.8 °F 35.6 °F 93% 30.07 in 4.0 mi ENE 17.3 mph 23.0 mph N/A   Overcast
8:13 PM 37.4 °F 28.2 °F 35.6 °F 93% 30.07 in 4.0 mi ENE 16.1 mph 23.0 mph N/A   Overcast
8:15 PM 37.4 °F 27.2 °F 35.6 °F 93% 30.07 in 5.0 mi ENE 19.6 mph - N/A   Overcast
8:29 PM 37.4 °F 28.2 °F 35.6 °F 93% 30.05 in 7.0 mi ENE 16.1 mph 21.9 mph N/A   Overcast
8:44 PM 37.4 °F 27.5 °F 35.6 °F 93% 30.05 in 7.0 mi East 18.4 mph - N/A   Overcast
8:56 PM 37.4 °F 27.8 °F 35.6 °F 93% 30.04 in 7.0 mi ENE 17.3 mph 24.2 mph N/A   Overcast
9:00 PM 37.4 °F 26.9 °F 35.6 °F 93% 30.05 in 6.0 mi ENE 20.7 mph - N/A   Overcast
9:13 PM 37.4 °F 26.9 °F 35.6 °F 93% 30.06 in 2.2 mi ENE 20.7 mph - N/A   Overcast
9:15 PM 37.4 °F 26.9 °F 35.6 °F 93% 30.06 in 1.8 mi ENE 20.7 mph - N/A   Light Drizzle
9:17 PM 37.4 °F 27.2 °F 35.6 °F 93% 30.06 in 1.2 mi ENE 19.6 mph - N/A   Light Drizzle
9:20 PM 37.4 °F 28.2 °F 35.6 °F 93% 30.05 in 1.2 mi ENE 16.1 mph 24.2 mph N/A   Drizzle
9:21 PM 37.4 °F 27.5 °F 35.6 °F 93% 30.06 in 1.0 mi ENE 18.4 mph 24.2 mph N/A   Drizzle
9:26 PM 37.4 °F 26.6 °F 35.6 °F 93% 30.06 in 1.2 mi ENE 21.9 mph - N/A   Drizzle
9:38 PM 37.4 °F 26.6 °F 35.6 °F 93% 30.05 in 1.2 mi ENE 21.9 mph - N/A   Overcast
9:39 PM 37.4 °F 26.9 °F 35.6 °F 93% 30.06 in 2.2 mi ENE 20.7 mph - N/A   Overcast
9:40 PM 37.4 °F 27.2 °F 35.6 °F 93% 30.06 in 2.2 mi ENE 19.6 mph 25.3 mph N/A   Overcast
9:46 PM 37.4 °F 26.4 °F 35.6 °F 93% 30.05 in 2.5 mi ENE 23.0 mph - N/A   Overcast
10:00 PM 37.4 °F 26.9 °F 35.6 °F 93% 30.06 in 2.0 mi ENE 20.7 mph - N/A   Overcast
10:11 PM 37.4 °F 28.2 °F 35.6 °F 93% 30.06 in 2.0 mi ENE 16.1 mph 25.3 mph N/A   Overcast
10:24 PM 37.4 °F 27.2 °F 35.6 °F 93% 30.06 in 2.0 mi ENE 19.6 mph - N/A   Overcast
10:26 PM 37.4 °F 27.2 °F 35.6 °F 93% 30.06 in 1.8 mi ENE 19.6 mph - N/A   Overcast
10:31 PM 37.4 °F 26.9 °F 35.6 °F 93% 30.06 in 1.6 mi ENE 20.7 mph - N/A   Overcast
10:38 PM 37.4 °F 28.5 °F 35.6 °F 93% 30.07 in 1.6 mi ENE 15.0 mph 23.0 mph N/A   Partly Cloudy
10:40 PM 37.4 °F 26.9 °F 35.6 °F 93% 30.08 in 1.6 mi ENE 20.7 mph - N/A   Overcast
10:41 PM 37.4 °F 27.2 °F 35.6 °F 93% 30.08 in 1.5 mi ENE 19.6 mph - N/A Rain Light Rain
10:44 PM 37.4 °F 26.9 °F 35.6 °F 93% 30.07 in 1.2 mi ENE 20.7 mph - N/A Rain Light Rain
10:50 PM 37.4 °F 27.8 °F 35.6 °F 93% 30.08 in 1.2 mi ENE 17.3 mph 24.2 mph N/A Rain Light Rain
10:52 PM 37.4 °F 27.2 °F 35.6 °F 93% 30.08 in 1.2 mi ENE 19.6 mph - N/A Rain Light Rain
10:55 PM 37.4 °F 26.9 °F 35.6 °F 93% 30.07 in 1.2 mi ENE 20.7 mph - N/A   Overcast
10:58 PM 37.4 °F 26.6 °F 35.6 °F 93% 30.07 in 1.2 mi ENE 21.9 mph - N/A   Overcast
11:00 PM 37 °F - 36 °F 92% 30.08 in 1 mi ENE 20.7 mph - - Rain Light Drizzle
11:00 PM 37.4 °F 26.9 °F 35.6 °F 93% 30.08 in 1.2 mi ENE 20.7 mph - N/A   Overcast
11:06 PM 37.4 °F 27.2 °F 35.6 °F 93% 30.08 in 1.2 mi ENE 19.6 mph - N/A   Overcast
11:08 PM 37.4 °F 26.9 °F 35.6 °F 93% 30.08 in 1.2 mi ENE 20.7 mph - N/A   Overcast
11:10 PM 37.4 °F 26.4 °F 35.6 °F 93% 30.08 in 1.2 mi ENE 23.0 mph - N/A   Overcast
11:15 PM 37.4 °F 27.2 °F 35.6 °F 93% 30.08 in 1.2 mi ENE 19.6 mph 25.3 mph N/A   Overcast
11:25 PM 37.4 °F 27.2 °F 35.6 °F 93% 30.08 in 2.2 mi ENE 19.6 mph 25.3 mph N/A   Overcast
11:32 PM 37.4 °F 27.2 °F 35.6 °F 93% 30.09 in 2.5 mi ENE 19.6 mph - N/A   Mostly Cloudy
11:43 PM 37.4 °F 28.5 °F 35.6 °F 93% 30.09 in 2.5 mi ENE 15.0 mph 20.7 mph N/A   Overcast